FENGYUN 1C DEB

Satellite information

Favourite Embed

Satellite Type and Status

DEBRISIN ORBIT

Key statistics

Satellite FENGYUN 1C DEB at a glance.

Uptime

9715

Days in orbit

Revolutions

≈ 14.2

Per day

Orbit

SSO

Sun Synchronous Orbit

Inclination

98.6

Latest

Satellite identification and parameters

Extended collection of information and parameters for FENGYUN 1C DEB.

Object identification

Identified? True

Debris? True

Object name: FENGYUN 1C DEB

International designator: 1999-025BRR

Object number (NORAD): 31361

Object ID (CCSDS): 31361

Country: PEOPLES REPUBLIC OF CHINA (PRC)

Current information (Y/N): Y

RCS size: SMALL

Orbital parameters

Period: 101.57 minutes

Inclination: 98.5508 deg

SMA: 7211.123 km

Apoapsis: 866.267 km

Periapsis: 799.71 km

RAAN: 322.6898 deg

Eccentricy: 0.00461491

Argument of periapsis: 68.7951 deg

Mean anomaly: 291.8146 deg

Mean motion: 14.17745819 rev/day

Mean motion (dot): 0.00000398 rev/day2

B* drag term: 0.00021329988 1/REarth

Two-line elements (TLE)

Creation date: Dec. 14, 2025, 3:07 a.m.

Reference frame: TEME

Reference center: EARTH

Epoch: Dec. 13, 2025, 9:42 a.m. UTC

TLE line 0: 0 FENGYUN 1C DEB

TLE line 1: 1 31361U 99025BRR 25347.40469826 .00000398 00000-0 21330-3 0 9991

TLE line 2: 2 31361 98.5508 322.6898 0046149 68.7951 291.8146 14.17745819965737

Live tracking on map

Real-time ground track for satellite FENGYUN 1C DEB.

In-orbit conjunctions

A list of the most updated potential collisions computed for object FENGYUN 1C DEB.

Target Orbit TCA Probability of collision Miss distance Type
SL-8 DEB LEO 2025-11-08 16:08:40 0.0001462666 337.0 (m) DEBRIS
COSMOS 2251 DEB LEO 2024-09-26 20:49:09 0.0002105057 173.0 (m) DEBRIS

Associated space launch

Chinese polar orbiting meteorological satellite

FENGYUN 1C DEB was lifted into orbit during the mission ‘Long March 4B | Feng Yun 1C’, on board a Long March 4B space rocket.

The launch took place on May 10, 1999, 1:33 a.m. from Launch Complex 7.

For more information about the launch, click the button.

Launch to space Long March 4B | Feng Yun 1C
Long March 4B | Feng Yun 1C

Agency: N/A

Status: Launch Successful

Launch date: May 10, 1999, 1:33 a.m. UTC

Rocket: Long March 4B

Launch pad: Launch Complex 7

Location: Taiyuan Satellite Launch Center, People's Republic of China

...

Latest news about this satellite

There are no fresh news available about this satellite. Check back as we update our databases every day.


Newsletter sign-up

Weekly statistics, charts and insights to help you stay on top of the space industry.